Weather observations for the past three days for
John Wayne-Orange County Airport
Imperial (Metric)
Date Time (pdt) Wind (mph) Vis. (mi.) Weather Sky Cond. Temperature (ºF) Relative Humidity Wind Chill (°F) Heat Index (°F) Pressure Precipitation (in)
Air Dwpt 6 hour altimeter (in) sea level (mb) 1 hr 3 hr 6 hr
Max. Min.
21 15:53 S 15 10.00 Partly Cloudy FEW007 SCT045 SCT180 75.9 64 67% 78 29.88 1011.6
21 14:53 SW 14 10.00 Partly Cloudy FEW007 FEW050 SCT180 78.1 63 60% 80 29.88 1011.7
21 13:53 S 16 10.00 Partly Cloudy FEW006 FEW050 SCT150 SCT220 75.9 63 64% 78 29.89 1012.1
21 12:53 S 14 10.00 Partly Cloudy FEW006 FEW050 SCT220 78.1 63 60% 80 29.9 1012.2
21 11:53 S 10 10.00 A Few Clouds FEW006 FEW220 78.1 63 60% 80 29.91 1012.5
21 10:53 SW 7 10.00 A Few Clouds FEW006 FEW220 77 62.1 77 66.9 60% 79 29.91 1012.8
21 09:53 S 6 10.00 A Few Clouds FEW220 75 62.1 64% 77 29.91 1012.8
21 08:53 SW 3 10.00 A Few Clouds FEW220 71.1 62.1 73% 29.91 1012.6
21 07:53 Calm 10.00 A Few Clouds FEW007 FEW021 68 61 78% 29.9 1012.3
21 06:53 SW 5 10.00 A Few Clouds FEW005 FEW210 66.9 61 81% 29.88 1011.7
21 05:53 W 3 8.00 Partly Cloudy FEW005 SCT210 66.9 61 81% 29.87 1011.2
21 04:53 Calm 10.00 Fair CLR 66.9 62.1 69.1 66.9 84% 29.86 1011.0
21 03:53 Calm 10.00 Fair CLR 68 63 84% 29.87 1011.2
21 02:53 Calm 10.00 Fair CLR 68 63 84% 29.87 1011.5
21 01:53 SW 5 10.00 Fair CLR 68 63 84% 29.88 1011.8
21 00:53 SW 7 10.00 Fair CLR 69.1 63 81% 29.9 1012.2
20 23:53 S 8 10.00 Fair CLR 69.1 63 81% 29.9 1012.3
20 22:53 S 8 8.00 A Few Clouds FEW012 69.1 63 79 69.1 81% 29.9 1012.2
20 21:53 SW 7 8.00 A Few Clouds FEW015 70 62.1 76% 29.89 1012.0
20 20:53 S 8 10.00 Fair CLR 71.1 62.1 73% 29.88 1011.6
20 19:53 S 8 10.00 A Few Clouds FEW014 73 61 66% 29.87 1011.2
20 18:53 S 8 10.00 Fair CLR 75.9 61 60% 78 29.86 1010.9
20 17:53 S 9 10.00 A Few Clouds FEW055 FEW210 78.1 60.1 54% 79 29.86 1010.9
20 16:53 SW 10 10.00 A Few Clouds FEW055 FEW180 79 60.1 79 73.9 52% 80 29.87 1011.4
20 15:53 SW 9 10.00 Partly Cloudy FEW010 FEW055 SCT150 78.1 61 56% 80 29.89 1012.0
20 14:53 SW 9 10.00 Partly Cloudy FEW010 FEW038 SCT150 79 61 54% 80 29.9 1012.5
20 13:53 SW 9 10.00 Partly Cloudy FEW008 FEW038 SCT150 78.1 61 56% 80 29.91 1012.8
20 12:53 SW 8 10.00 Partly Cloudy FEW009 FEW038 SCT210 77 61 58% 79 29.93 1013.4
20 11:53 S 6 9.00 A Few Clouds FEW009 FEW170 75.9 61 60% 78 29.94 1013.7
20 10:53 SW 7 8.00 A Few Clouds FEW009 73.9 61 73.9 64 64% 29.95 1013.9
20 09:53 S 5 6.00 Fog/Mist FEW007 71.1 61 71% 29.95 1014.1
20 08:53 S 6 5.00 Fog/Mist FEW006 69.1 61 76% 29.95 1014.0
20 07:53 Calm 4.00 Fog/Mist BKN004 64.9 61 87% 29.95 1014.1
20 06:53 W 3 3.00 Fog/Mist BKN005 64 61 90% 29.94 1013.6
20 05:53 S 5 2.50 Fog/Mist BKN005 BKN210 64 61 90% 29.92 1013.1
20 04:53 Calm 4.00 Fog/Mist OVC003 64 61 70 64 90% 29.91 1012.6
20 03:53 SW 3 7.00 Fair CLR 64.9 61 87% 29.91 1012.6
20 02:53 SW 3 9.00 Fair CLR 64.9 61 87% 29.91 1012.8
20 01:53 W 3 9.00 Fair CLR 66 61 84% 29.92 1013.0
20 00:53 W 3 10.00 Fair CLR 68 62.1 81% 29.92 1013.2
19 23:53 W 3 10.00 Fair CLR 70 62.1 76% 29.93 1013.5
19 22:53 Calm 7.00 Fair CLR 70 62.1 78.1 70 76% 29.93 1013.5
19 21:53 SW 5 8.00 Fair CLR 71.1 62.1 73% 29.94 1013.5
19 20:53 SW 6 10.00 Fair CLR 71.1 62.1 73% 29.93 1013.3
19 19:53 S 5 10.00 A Few Clouds FEW007 72 61 68% 29.92 1012.9
19 18:53 SW 7 10.00 A Few Clouds FEW008 73.9 61 64% 29.91 1012.6
19 17:53 SW 8 10.00 A Few Clouds FEW007 FEW150 73.9 61 64% 29.91 1012.8
19 16:53 S 12 10.00 A Few Clouds FEW015 FEW035 77 63 79 75.9 62% 79 29.92 1013.1
19 15:53 SW 10 10.00 A Few Clouds FEW015 FEW035 77 62.1 60% 79 29.93 1013.5
19 14:53 SW 10 10.00 A Few Clouds FEW015 FEW035 77 62.1 60% 79 29.96 1014.2
19 13:53 S 14 10.00 A Few Clouds FEW015 77 63 62% 79 29.96 1014.4
19 12:53 S 14 10.00 A Few Clouds FEW015 78.1 63 60% 80 29.97 1014.9
19 11:53 Vrbl 7 10.00 A Few Clouds FEW015 77 62.1 60% 79 29.98 1015.0
19 10:53 Vrbl 7 10.00 A Few Clouds FEW014 75.9 62.1 75.9 66.9 62% 78 29.98 1015.2
19 09:53 S 5 10.00 A Few Clouds FEW013 73.9 62.1 67% 29.99 1015.4
19 08:53 Vrbl 5 10.00 Overcast OVC012 71.1 62.1 73% 29.99 1015.5
19 07:53 Calm 9.00 Overcast OVC009 68 62.1 81% 29.99 1015.5
19 06:53 Calm 7.00 Overcast OVC009 68 62.1 81% 29.98 1015.0
19 05:53 S 3 10.00 Overcast OVC009 68 62.1 81% 29.96 1014.5
19 04:53 S 3 10.00 Overcast OVC008 66.9 62.1 69.1 66.9 84% 29.96 1014.4
19 03:53 Calm 10.00 Overcast OVC008 68 62.1 81% 29.96 1014.4
19 02:53 SW 3 10.00 Overcast OVC009 68 62.1 81% 29.96 1014.4
19 01:53 SW 3 10.00 Overcast OVC009 68 62.1 81% 29.97 1014.7
19 00:53 S 3 10.00 Overcast OVC010 68 62.1 81% 29.98 1015.2
18 23:53 S 5 10.00 Overcast OVC010 69.1 62.1 78% 29.99 1015.3
18 22:53 SW 7 10.00 Overcast OVC009 69.1 62.1 75.9 68 78% 29.99 1015.5
18 21:53 SW 6 10.00 Mostly Cloudy BKN008 68 62.1 81% 29.98 1015.1
18 20:53 S 9 10.00 Mostly Cloudy BKN009 68 62.1 81% 29.97 1014.6
18 19:53 S 10 10.00 A Few Clouds FEW006 FEW070 69.1 62.1 78% 29.96 1014.3
18 18:53 S 10 10.00 A Few Clouds FEW009 FEW070 70 61 73% 29.95 1014.0
18 17:53 SW 12 10.00 A Few Clouds FEW015 FEW060 73.9 62.1 67% 29.93 1013.5
18 16:53 S 13 10.00 A Few Clouds FEW018 FEW065 75 61 77 73.9 62% 77 29.94 1013.6
Date Time (pdt) Wind (mph) Vis. (mi.) Weather Sky Cond. Air Dwpt Max. Min. Relative Humidity Wind Chill (°F) Heat Index (°F) altimeter (in) sea level (mb) 1 hr 3 hr 6 hr
6 hour
Temperature (ºF) Pressure Precipitation (in)